Terug naar catalogus

SCOUT X-4 DEB

ActiefLEO
NORAD 2011·DEBRIS·🇺🇸 United States

Gelanceerd Apr 29, 1965 vanaf Wallops Flight Facility

Loading…

Volgende Passages (komende 24 uur)

TLE

VersSource: Space-Track

Epoch: Sep 14, 2026, 15:20 UTC

1 02011U 65032D   26257.63909675  .00001308  00000-0  21738-2 0  9992
2 02011  41.1972  97.5380 0219504  45.6173   2.8825 13.41107927989331

Volg SCOUT X-4 DEB in realtime met AllMySat

Download on the App Store